KD2OZA Weather Reports


time (UTC)temp
F
wind
direction
speed
knots
gust
knots
rain 1hr
in
rain 24hr
in
rain mn
in
humidity
%
barometer
mb
20260506081048 56 0 0.0 0.0 0.00 0.00 0.00 79 1006.5
20260506080547 56 0 0.0 0.0 0.00 0.00 0.00 79 1006.7
20260506073056 56 0 0.0 0.0 0.00 0.03 0.00 78 1006.5
20260506072547 56 0 0.0 0.0 0.00 0.03 0.00 78 1006.4
20260506072047 56 0 0.0 0.0 0.00 0.03 0.00 77 1006.6
20260506071559 56 0 0.0 0.0 0.00 0.03 0.00 78 1006.7
20260506071048 56 0 0.0 0.0 0.00 0.03 0.00 78 1006.8
20260506070552 55 0 0.0 0.0 0.00 0.03 0.00 81 1006.9
20260506062047 52 0 0.0 0.0 0.00 0.03 0.00 90 1007.4
20260506061552 52 0 0.0 0.0 0.00 0.03 0.00 90 1007.2
20260506061047 51 0 0.0 0.0 0.00 0.03 0.00 89 1007.3
20260506060548 51 0 0.0 0.0 0.00 0.03 0.00 89 1007.3
20260506051047 52 0 0.0 0.0 0.00 0.03 0.00 88 1007.9
20260506050548 52 0 0.0 0.0 0.00 0.03 0.00 88 1008.0
20260506045049 52 0 0.0 0.0 0.00 0.03 0.00 88 1007.9
20260506044550 52 0 0.0 0.0 0.00 0.03 0.00 88 1007.9
20260506044048 52 0 0.0 0.0 0.00 0.03 0.00 87 1007.9
20260506043548 52 0 0.0 0.0 0.00 0.03 0.00 87 1007.9
20260506043050 52 0 0.0 0.0 0.00 0.03 0.00 87 1007.7
20260506042545 52 0 0.0 0.0 0.00 0.03 0.00 88 1007.9
20260506042049 52 0 0.0 0.0 0.00 0.03 0.00 89 1007.9
20260506041554 52 0 0.0 0.0 0.00 0.03 0.00 89 1008.0
20260506041045 51 0 0.0 0.0 0.00 0.03 0.00 89 1008.0
20260506040545 51 0 0.0 0.0 0.00 0.03 0.00 88 1008.1
20260506040107 51 0 0.0 0.0 0.00 0.03 0.00 88 1008.1
20260506035545 51 0 0.0 0.0 0.00 0.03 0.03 87 1008.1
20260506035048 51 0 0.0 0.0 0.00 0.03 0.03 87 1008.1
20260506034553 51 0 0.0 0.0 0.00 0.03 0.03 86 1008.3
20260506034048 52 0 0.0 0.0 0.00 0.03 0.03 87 1008.1
20260506033549 52 0 0.0 0.0 0.00 0.03 0.03 87 1008.1
20260506033056 52 0 0.0 0.0 0.00 0.03 0.03 87 1008.0
20260506032548 52 0 0.0 0.0 0.00 0.03 0.03 85 1008.2
20260506032045 52 0 0.0 0.0 0.00 0.03 0.03 85 1008.1
20260506031552 52 0 0.0 0.0 0.00 0.03 0.03 84 1008.0
20260506031046 53 0 0.0 0.0 0.00 0.03 0.03 84 1008.1
20260506030545 53 0 0.0 0.0 0.00 0.03 0.03 82 1008.0
20260506025545 54 0 0.0 0.0 0.00 0.03 0.03 82 1008.1
20260506025045 55 0 0.0 0.0 0.00 0.03 0.03 82 1008.0
20260506024557 54 0 0.0 0.0 0.00 0.03 0.03 82 1008.1
20260506024045 54 0 0.0 0.0 0.00 0.03 0.03 82 1008.1
20260506023545 54 0 0.0 0.0 0.00 0.03 0.03 82 1008.1
20260506023051 54 0 0.0 0.0 0.00 0.03 0.03 83 1008.1
20260506022545 54 0 0.0 0.0 0.00 0.03 0.03 83 1008.1
20260506022048 55 0 0.0 0.0 0.00 0.03 0.03 81 1008.0
20260506021559 55 0 0.0 0.0 0.00 0.03 0.03 82 1007.9
20260506021048 55 0 0.0 0.0 0.00 0.03 0.03 82 1008.0
20260506020549 55 0 0.0 0.0 0.00 0.03 0.03 80 1008.1
20260506020053 56 0 0.0 0.0 0.00 0.03 0.03 80 1008.1
20260506015545 56 0 0.0 0.0 0.00 0.03 0.03 79 1008.1
20260506015048 57 0 0.0 0.0 0.00 0.03 0.03 79 1008.2
20260506014603 57 0 0.0 0.0 0.00 0.03 0.03 78 1008.2
20260506014045 57 0 0.0 0.0 0.00 0.03 0.03 78 1008.3
20260506013544 57 0 0.0 0.0 0.00 0.03 0.03 78 1008.2
20260506013054 58 0 0.0 0.0 0.00 0.03 0.03 77 1008.1
20260506012545 58 0 0.0 0.0 0.00 0.03 0.03 77 1008.0
20260506012045 58 0 0.0 0.0 0.00 0.03 0.03 77 1008.0
20260506011550 58 0 0.0 0.0 0.00 0.03 0.03 77 1007.8
20260506011045 58 0 0.0 0.0 0.00 0.03 0.03 77 1007.7
20260506010548 57 0 0.0 0.0 0.00 0.03 0.03 77 1007.6
20260506010058 57 0 0.0 0.0 0.00 0.03 0.03 77 1007.5
20260506005548 57 0 0.0 0.0 0.00 0.03 0.03 77 1007.5
20260506005044 58 0 0.0 0.0 0.00 0.03 0.03 76 1007.4
20260506004557 58 0 0.0 0.0 0.00 0.03 0.03 76 1007.3
20260506004044 59 0 0.0 0.0 0.00 0.03 0.03 75 1007.2
20260506003546 59 0 0.0 0.0 0.00 0.03 0.03 74 1007.2
20260506003050 60 0 0.0 0.0 0.00 0.03 0.03 75 1007.2
20260506002544 61 0 0.0 0.0 0.00 0.03 0.03 75 1007.2
20260506002044 61 0 0.0 0.0 0.00 0.03 0.03 74 1007.2
20260506001558 61 0 0.0 0.0 0.00 0.03 0.03 73 1007.2
20260506001044 62 0 0.0 0.0 0.00 0.03 0.03 74 1007.1
20260506000546 62 0 0.0 0.0 0.00 0.03 0.03 73 1007.2
20260506000100 62 0 0.0 0.0 0.00 0.03 0.03 73 1007.2
20260505235547 63 0 0.0 0.0 0.00 0.03 0.03 74 1007.1
20260505235045 63 0 0.0 0.0 0.00 0.03 0.03 73 1007.1
20260505234556 63 0 0.0 0.0 0.00 0.03 0.03 73 1007.2
20260505234048 63 0 0.0 0.0 0.00 0.03 0.03 73 1007.0
20260505233548 64 0 0.0 0.0 0.00 0.03 0.03 73 1007.0
20260505233109 64 0 0.0 0.0 0.00 0.03 0.03 72 1006.9
20260505232544 64 0 0.0 0.0 0.00 0.03 0.03 71 1006.8
20260505232044 64 0 0.0 0.0 0.00 0.03 0.03 70 1006.9
20260505231554 65 0 0.0 0.0 0.00 0.03 0.03 72 1006.8
20260505231045 65 0 0.0 0.0 0.00 0.03 0.03 69 1006.8
20260505230545 65 0 0.0 0.0 0.00 0.03 0.03 70 1006.7
20260505230051 66 0 0.0 0.0 0.00 0.03 0.03 70 1006.8
20260505225545 66 0 0.0 0.0 0.00 0.03 0.03 68 1006.6
20260505225045 67 0 0.0 0.9 0.00 0.03 0.03 67 1006.7
20260505224550 67 0 0.0 0.9 0.00 0.03 0.03 65 1006.7
20260505224049 68 0 0.0 0.9 0.00 0.03 0.03 65 1006.6
20260505223545 69 0 0.0 3.5 0.00 0.03 0.03 63 1006.6
20260505223052 70 0 0.0 3.5 0.00 0.03 0.03 63 1006.6
20260505222548 70 355 0.9 3.5 0.00 0.03 0.03 54 1006.6
20260505222045 70 315 0.0 0.0 0.00 0.03 0.03 57 1006.5
20260505221551 70 0 0.0 0.0 0.00 0.03 0.03 61 1006.3
20260505221047 71 0 0.0 1.7 0.00 0.03 0.03 64 1006.4
20260505220544 71 0 0.0 1.7 0.00 0.03 0.03 54 1006.3
20260505220054 71 0 0.0 1.7 0.00 0.03 0.03 53 1006.3
20260505215545 71 0 0.0 0.9 0.00 0.03 0.03 53 1006.3
20260505215045 71 314 0.0 0.9 0.00 0.03 0.03 54 1006.3
20260505214549 71 0 0.0 2.6 0.00 0.03 0.03 55 1006.2
20260505214045 71 0 0.0 4.3 0.00 0.03 0.03 53 1006.2
20260505213544 71 308 0.9 4.3 0.00 0.03 0.03 53 1006.2
20260505213054 71 335 0.9 5.2 0.00 0.03 0.03 54 1006.2
20260505212548 70 314 1.7 7.8 0.00 0.03 0.03 55 1006.1
20260505212048 69 306 2.6 7.8 0.00 0.03 0.03 60 1006.3
20260505211600 69 310 0.0 0.9 0.00 0.03 0.03 68 1006.3
20260505211048 69 332 0.0 3.5 0.00 0.03 0.03 63 1006.2
20260505210549 69 0 0.0 3.5 0.00 0.03 0.03 63 1006.1
20260505210107 69 331 0.0 1.7 0.00 0.03 0.03 63 1006.1
20260505205548 69 0 0.0 1.7 0.00 0.03 0.03 62 1006.1
20260505205048 69 318 0.0 3.5 0.00 0.03 0.03 64 1006.0
20260505204559 69 318 0.9 3.5 0.00 0.03 0.03 62 1006.1
20260505204047 69 335 0.9 2.6 0.00 0.03 0.03 60 1006.2
20260505203547 70 318 0.0 10.4 0.00 0.03 0.03 62 1006.1
20260505203056 71 335 2.6 13.9 0.00 0.03 0.03 59 1006.3
20260505202548 74 18 3.5 13.9 0.00 0.03 0.03 50 1006.7
20260505202048 74 299 3.5 9.6 0.00 0.03 0.03 43 1006.4
20260505201555 74 231 0.9 7.8 0.00 0.03 0.03 44 1005.9
20260505201048 74 281 2.6 7.8 0.00 0.03 0.03 43 1005.9
20260505200549 74 264 1.7 18.2 0.00 0.03 0.03 44 1005.9
20260505200052 75 255 2.6 18.2 0.00 0.03 0.03 43 1005.8
20260505195547 75 222 3.5 18.2 0.00 0.03 0.03 43 1005.9
20260505195047 76 282 1.7 6.1 0.00 0.03 0.03 44 1005.6
20260505194557 76 0 0.9 4.3 0.00 0.03 0.03 44 1005.6
20260505194048 76 273 1.7 11.3 0.00 0.03 0.03 45 1005.8
20260505193547 76 267 1.7 11.3 0.00 0.03 0.03 43 1005.5
20260505193105 77 50 5.2 11.3 0.00 0.03 0.03 43 1005.6
20260505192547 78 297 2.6 11.3 0.00 0.03 0.03 43 1005.8
20260505192048 78 319 2.6 11.3 0.00 0.03 0.03 44 1005.8
20260505191559 78 330 1.7 13.9 0.00 0.03 0.03 44 1005.7
20260505191049 78 288 2.6 13.9 0.00 0.03 0.03 43 1005.8
20260505190548 78 319 5.2 15.6 0.00 0.03 0.03 44 1005.9
20260505190052 78 306 5.2 15.6 0.00 0.03 0.03 42 1006.1
20260505185550 78 295 4.3 10.4 0.00 0.03 0.03 43 1006.3
20260505185048 78 305 2.6 10.4 0.00 0.03 0.03 43 1006.2
20260505184601 78 15 1.7 13.0 0.00 0.03 0.03 44 1006.4
20260505184048 77 317 3.5 13.0 0.00 0.03 0.03 45 1006.5
20260505183547 77 103 4.3 17.4 0.00 0.03 0.03 44 1006.6
20260505183055 77 276 5.2 17.4 0.00 0.03 0.03 45 1006.6
20260505182548 77 318 4.3 10.4 0.00 0.03 0.03 45 1006.8
20260505182047 77 284 3.5 8.7 0.00 0.03 0.03 45 1006.8
20260505181647 77 304 3.5 10.4 0.00 0.03 0.03 44 1006.8
20260505181049 77 319 4.3 10.4 0.00 0.03 0.03 45 1006.9
20260505180548 77 173 2.6 10.4 0.00 0.03 0.03 45 1007.1
20260505180058 77 286 3.5 12.2 0.00 0.03 0.03 46 1007.0
20260505175548 78 304 2.6 12.2 0.00 0.03 0.03 43 1007.2
20260505175048 78 318 4.3 13.0 0.00 0.03 0.03 44 1007.2
20260505174555 78 304 4.3 13.0 0.00 0.03 0.03 46 1007.2
20260505174053 78 292 2.6 9.6 0.00 0.03 0.03 45 1007.2
20260505173547 78 300 1.7 9.6 0.00 0.03 0.03 43 1007.1
20260505173054 78 296 2.6 11.3 0.00 0.03 0.03 45 1007.1
20260505172547 77 290 3.5 11.3 0.00 0.03 0.03 49 1007.0
20260505172048 77 302 1.7 7.8 0.00 0.03 0.03 47 1006.9
20260505171554 76 356 1.7 7.8 0.00 0.03 0.03 48 1007.0
20260505171048 76 103 2.6 8.7 0.00 0.03 0.03 50 1006.9
20260505170549 76 290 1.7 15.6 0.00 0.03 0.03 49 1007.2
20260505170056 76 278 5.2 15.6 0.00 0.03 0.03 47 1007.3
20260505165548 76 309 1.7 7.0 0.00 0.03 0.03 47 1007.4
20260505165048 76 311 3.5 10.4 0.00 0.03 0.03 50 1007.4
20260505164551 76 271 2.6 10.4 0.00 0.03 0.03 49 1007.4
20260505164048 75 15 3.5 10.4 0.00 0.03 0.03 51 1007.5
20260505163548 76 37 3.5 9.6 0.00 0.03 0.03 50 1007.5
20260505163053 76 193 2.6 9.6 0.00 0.03 0.03 50 1007.5
20260505162548 76 282 3.5 8.7 0.00 0.03 0.03 53 1007.8
20260505162047 76 240 1.7 12.2 0.00 0.03 0.03 52 1007.9
20260505161553 75 349 2.6 12.2 0.00 0.03 0.03 50 1007.8
20260505161048 75 249 0.9 11.3 0.00 0.03 0.03 53 1007.9
20260505160549 75 271 3.5 11.3 0.00 0.03 0.03 52 1007.9
20260505153105 74 313 1.7 8.7 0.00 0.03 0.03 52 1008.5
20260505152548 74 317 2.6 7.8 0.00 0.03 0.03 50 1008.3
20260505152048 74 340 1.7 7.8 0.00 0.03 0.03 56 1008.3
20260505151558 73 299 3.5 7.8 0.00 0.03 0.03 54 1008.4
20260505151051 74 264 2.6 6.1 0.00 0.03 0.03 52 1008.3
20260505150547 73 123 2.6 6.1 0.00 0.03 0.03 57 1008.3
20260505140547 70 328 1.7 9.6 0.00 0.03 0.03 58 1008.5
20260505124557 64 330 1.7 7.8 0.00 0.03 0.03 65 1008.9
20260505124049 64 293 1.7 7.8 0.00 0.03 0.03 66 1008.9
20260505123552 63 250 1.7 7.0 0.00 0.03 0.03 66 1008.8
20260505123109 63 316 1.7 7.8 0.00 0.03 0.03 66 1008.9
20260505122547 63 302 2.6 7.8 0.00 0.03 0.03 66 1008.9
20260505122048 62 307 1.7 5.2 0.00 0.03 0.03 68 1009.1
20260505121553 62 294 0.9 4.3 0.00 0.03 0.03 69 1009.0
20260505121052 62 303 0.9 7.0 0.00 0.03 0.03 68 1008.9
20260505120548 61 300 2.6 7.0 0.00 0.03 0.03 68 1009.0
20260505120101 61 264 0.9 7.8 0.00 0.03 0.03 69 1009.0
20260505115547 60 331 2.6 7.8 0.00 0.03 0.03 70 1008.8
20260505115047 60 338 1.7 6.1 0.00 0.03 0.03 71 1008.8
20260505114554 59 326 1.7 6.1 0.00 0.03 0.03 74 1008.9
20260505114048 57 302 0.9 3.5 0.00 0.03 0.03 74 1008.8
20260505113552 56 0 0.0 1.7 0.00 0.03 0.03 77 1008.7
20260505113052 56 309 0.0 2.6 0.00 0.03 0.03 80 1008.8
20260505112547 56 310 0.9 3.5 0.00 0.03 0.03 80 1008.7
20260505112047 55 0 0.9 3.5 0.00 0.03 0.03 83 1008.9
20260505111554 54 0 0.9 4.3 0.00 0.03 0.03 87 1008.8
20260505111048 52 313 0.9 4.3 0.00 0.03 0.03 94 1008.8
20260505110548 51 330 0.0 1.7 0.00 0.03 0.03 94 1008.7
20260505102048 46 0 0.0 0.0 0.00 0.03 0.03 93 1008.1
20260505101556 46 0 0.0 0.9 0.00 0.03 0.03 93 1008.0
20260505101048 46 0 0.0 0.9 0.00 0.03 0.03 93 1007.9
20260505100548 46 0 0.0 0.0 0.00 0.03 0.03 92 1007.9
20260505100056 46 0 0.0 0.0 0.00 0.03 0.03 92 1008.0
20260505095548 46 0 0.0 0.0 0.00 0.03 0.03 92 1007.9
20260505095047 46 0 0.0 0.0 0.00 0.03 0.03 92 1007.9
20260505094550 46 0 0.0 0.0 0.00 0.03 0.03 92 1007.9
20260505094047 47 0 0.0 0.0 0.00 0.03 0.03 92 1007.9
20260505093547 47 0 0.0 0.0 0.00 0.03 0.03 92 1007.9
20260505093050 47 0 0.0 0.0 0.00 0.03 0.03 92 1007.9
20260505092548 47 0 0.0 0.0 0.00 0.03 0.03 92 1007.9
20260505092048 47 0 0.0 0.9 0.00 0.03 0.03 92 1007.9
20260505091615 47 0 0.0 0.9 0.00 0.03 0.03 91 1007.8
20260505091047 47 0 0.0 0.0 0.00 0.03 0.03 91 1007.8
20260505090548 47 0 0.0 0.9 0.00 0.03 0.03 91 1007.8
20260505090114 47 0 0.0 0.9 0.00 0.03 0.03 91 1007.7
20260505085547 48 0 0.0 0.0 0.02 0.03 0.03 90 1007.8
20260505085051 48 0 0.0 0.0 0.03 0.03 0.03 90 1007.8
20260505084613 48 0 0.0 0.9 0.03 0.03 0.03 90 1007.8
20260505084049 49 0 0.0 0.9 0.03 0.03 0.03 90 1007.9
20260505083551 49 0 0.0 0.0 0.03 0.03 0.03 90 1007.7
20260505083108 49 0 0.0 0.0 0.03 0.03 0.03 89 1007.9
20260505082547 50 0 0.0 0.0 0.03 0.03 0.03 89 1007.9
20260505082048 50 0 0.0 0.9 0.03 0.03 0.03 89 1007.9
20260505081601 50 0 0.0 0.9 0.03 0.03 0.03 89 1007.9